LIMCLIPR

Guest
Details From LIMC - Milano Malpensa
To LIPR - Rimini Mil
Flight Number -
Tags generated
Created
Modified
Stats Distance 193 nm / 358 km
Max Altitude 19,500 ft / 5,944 m
Waypoints 4
Social Downloads 0
Likes 0
Share VATSIM

Download

Looking for another format? Having issues loading an existing format? Contact us
Advertisement - Login to hide

Notes

Basic altitude profile: - Ascent Rate: 2500ft/min - Ascent Speed: 250kts - Cruise Altitude: 35000ft - Cruise Speed: 420kts - Descent Rate: 1500ft/min - Descent Speed: 250kts Options: - Use NATs: yes - Use PACOTS: yes - Use low airways: yes - Use high airways: yes

Route

LIMC NERBO UW95 BOA LIPR

ID Type Via Altitude Latitude Longitude Leg Dist Tot Dist Heading (true) Name
O LIMC APT - 0 ft / 0 m 45.63061˚ 8.72811˚ - 0 nm - Milano Malpensa
NERBO FIX - 19,500 ft / 5,944 m 45.28333˚ 10.00000˚ 57 nm 57 nm 111° / 112° -
BOA VOR UW95 (AWY-HI) 19,500 ft / 5,944 m 44.53694˚ 11.29055˚ 70 nm 128 nm 129° / 130° BOLOGNA VOR-DME
O LIPR APT - 0 ft / 0 m 44.02029˚ 12.61175˚ 64 nm 193 nm 118° / 119° Rimini Mil

Altitude Profile

Advertisement - Login to hide

Weather


0- 5 10 15 20 25 30 35+ Temperature / ° C

Clouds and Precipitation
Forecast for 2018-05-25 00:00 UTC. Updated 35 minutes ago

Ground ~20,000 ft ~40,000 ft Winds

LIMC

Details ICAO LIMC (MXP)
Name Milano Malpensa
Region Italy
Timezone Europe/Rome (UTC+2.0)
Stats Elevation 767 ft / 234 m (AMSL)
Location 45.630606° 8.728111°
Runways 2
Magnetic Variation 2.429° E

METAR

LIMC 242320Z 01005KT CAVOK 16/14 Q1017 NOSIG

Decode

TAF

TAF LIMC 242300Z 2500/2606 VRB05KT CAVOK

Decode

Departure Runways

ID Width Length Bearing (true) Bearing (mag) Surface Threshold Offset Overrun Length
17L 197 ft / 60 m 12,869 ft / 3,923 m 169.62° 167.19° Asphalt 3,094 ft / 943 m 0 ft / 0 m
17R 197 ft / 60 m 12,869 ft / 3,923 m 169.62° 167.19° Asphalt 0 ft / 0 m 0 ft / 0 m
35L 197 ft / 60 m 12,869 ft / 3,923 m 349.62° 347.19° Asphalt 1,329 ft / 405 m 0 ft / 0 m
35R 197 ft / 60 m 12,869 ft / 3,923 m 349.62° 347.19° Asphalt 0 ft / 0 m 0 ft / 0 m

LIPR

Details ICAO LIPR (RMI)
Name Rimini Mil
Region Italy
Timezone Europe/Rome (UTC+2.0)
Stats Elevation 41 ft / 12 m (AMSL)
Location 44.020286° 12.611746°
Runways 1
Magnetic Variation 3.216° E

METAR

LIPR 242315Z 21002KT CAVOK 18/17 Q1015

Decode

TAF

Not found

Destination Runways

ID Width Length Bearing (true) Bearing (mag) Surface Threshold Offset Overrun Length
13 148 ft / 45 m 9,818 ft / 2,992 m 127.79° 124.57° Asphalt 1,030 ft / 314 m 846 ft / 258 m
31 148 ft / 45 m 9,818 ft / 2,992 m 307.81° 304.59° Asphalt 1,006 ft / 307 m 376 ft / 115 m

Approach Navaids

Runway Type Ident Frequency Range Bearing (true) Bearing (mag) Slope Elevation
31 Localiser MIR 109.30 MHz 18 nm / 33 km 307.77° 304.56° - 41 ft / 12 m (AMSL)
31 Glidescope MIR 109.30 MHz 10 nm / 19 km 307.80° 304.58° 3.00° 41 ft / 12 m (AMSL)

Popular Alternatives